EW7205 Weather Reports


Display with metric or nautical units.
time (UTC)temp
F
wind
direction
speed
MPH
gust
MPH
rain 1hr
in
rain 24hr
in
rain mn
in
humidity
%
barometer
mb
20191112124506 65 0 0.0 2.0 0.00 0.00 0.00 75 1016.3
20191112124005 65 0 0.0 2.0 0.00 0.00 0.00 74 1016.0
20191112123503 65 110 0.0 2.0 0.00 0.00 0.00 74 1015.9
20191112123005 65 113 0.0 2.0 0.00 0.00 0.00 74 1016.1
20191112122504 65 104 0.0 2.0 0.00 0.00 0.00 74 1015.9
20191112122003 65 0 0.0 2.0 0.00 0.00 0.00 74 1016.0
20191112121506 65 0 0.0 2.0 0.00 0.00 0.00 74 1015.8
20191112121007 65 135 0.0 2.0 0.00 0.00 0.00 74 1015.9
20191112120503 65 126 0.0 2.0 0.00 0.00 0.00 74 1015.8
20191112120006 65 0 0.0 2.0 0.00 0.00 0.00 74 1015.7
20191112115505 65 0 0.0 2.0 0.00 0.00 0.00 74 1015.4
20191112115003 65 85 0.0 3.0 0.00 0.00 0.00 73 1015.3
20191112114508 65 80 0.0 3.0 0.00 0.00 0.00 73 1015.2
20191112114004 65 79 0.0 2.0 0.00 0.00 0.00 73 1015.2
20191112113503 65 0 0.0 2.0 0.00 0.00 0.00 73 1015.3
20191112113005 65 0 0.0 2.0 0.00 0.00 0.00 72 1015.5
20191112112504 65 0 0.0 2.0 0.00 0.00 0.00 72 1015.3
20191112112003 65 101 0.0 2.0 0.00 0.00 0.00 72 1015.5
20191112111505 65 90 0.0 2.0 0.00 0.00 0.00 72 1015.4
20191112111004 65 0 0.0 2.0 0.00 0.00 0.00 72 1015.4
20191112110506 65 0 0.0 2.0 0.00 0.00 0.00 71 1015.5
20191112110005 65 0 0.0 2.0 0.00 0.00 0.00 71 1015.6
20191112105505 65 87 0.0 2.0 0.00 0.00 0.00 71 1015.6
20191112105008 65 92 0.0 2.0 0.00 0.00 0.00 71 1015.6
20191112104504 65 104 0.0 2.0 0.00 0.00 0.00 70 1015.3
20191112104004 65 103 0.0 2.0 0.00 0.00 0.00 70 1015.3
20191112103504 65 104 0.0 2.0 0.00 0.00 0.00 70 1015.3
20191112103004 65 103 0.0 2.0 0.00 0.00 0.00 70 1015.1
20191112102504 65 90 0.0 2.0 0.00 0.00 0.00 69 1015.2
20191112102005 65 0 0.0 2.0 0.00 0.00 0.00 69 1015.2
20191112101504 65 0 0.0 2.0 0.00 0.00 0.00 69 1015.2
20191112101004 65 0 0.0 2.0 0.00 0.00 0.00 69 1015.4
20191112100504 65 0 0.0 1.0 0.00 0.00 0.00 69 1015.4
20191112100005 65 93 0.0 2.0 0.00 0.00 0.00 69 1015.2
20191112095505 65 92 0.0 2.0 0.00 0.00 0.00 68 1015.2
20191112095004 65 0 0.0 2.0 0.00 0.00 0.00 68 1015.1
20191112094504 65 0 0.0 2.0 0.00 0.00 0.00 68 1015.1
20191112094003 66 0 0.0 2.0 0.00 0.00 0.00 68 1015.3
20191112093504 66 100 0.0 2.0 0.00 0.00 0.00 68 1015.1
20191112093005 66 99 0.0 2.0 0.00 0.00 0.00 67 1015.0
20191112092507 65 0 0.0 1.0 0.00 0.00 0.00 67 1014.9
20191112092005 66 0 0.0 2.0 0.00 0.00 0.00 67 1015.1
20191112091510 66 109 0.0 2.0 0.00 0.00 0.00 66 1015.1
20191112091003 66 106 0.0 2.0 0.00 0.00 0.00 66 1015.2
20191112090508 66 105 0.0 2.0 0.00 0.00 0.00 66 1015.0
20191112090005 66 110 0.0 2.0 0.00 0.00 0.00 65 1015.1
20191112085503 66 137 0.0 2.0 0.00 0.00 0.00 65 1015.0
20191112085009 66 120 0.0 2.0 0.00 0.00 0.00 65 1014.9
20191112084506 66 0 0.0 2.0 0.00 0.00 0.00 64 1015.0
20191112084003 66 107 0.0 2.0 0.00 0.00 0.00 64 1015.1
20191112083504 66 117 0.0 2.0 0.00 0.00 0.00 63 1015.1
20191112083006 66 108 0.0 2.0 0.00 0.00 0.00 63 1015.0
20191112082503 66 99 0.0 2.0 0.00 0.00 0.00 63 1015.0
20191112082004 66 85 0.0 4.0 0.00 0.00 0.00 63 1014.9
20191112081504 66 109 0.0 4.0 0.00 0.00 0.00 63 1014.9
20191112081004 66 133 0.0 4.0 0.00 0.00 0.00 62 1014.8
20191112080504 66 0 0.0 2.0 0.00 0.00 0.00 62 1014.9
20191112080006 66 145 0.0 2.0 0.00 0.00 0.00 62 1015.1
20191112075505 67 154 0.0 2.0 0.00 0.00 0.00 62 1015.0
20191112075004 67 97 0.0 2.0 0.00 0.00 0.00 62 1015.1
20191112074504 67 100 0.0 2.0 0.00 0.00 0.00 62 1015.1
20191112074007 67 0 0.0 2.0 0.00 0.00 0.00 61 1015.2
20191112073507 67 106 0.0 2.0 0.00 0.00 0.00 61 1015.2
20191112073012 67 119 0.0 2.0 0.00 0.00 0.00 61 1015.3
20191112072507 67 112 0.0 2.0 0.00 0.00 0.00 61 1015.2
20191112071504 67 89 0.0 2.0 0.00 0.00 0.00 61 1015.5
20191112071004 67 88 0.0 3.0 0.00 0.00 0.00 61 1015.2
20191112070504 67 96 0.0 3.0 0.00 0.00 0.00 61 1015.2
20191112070004 67 109 0.0 2.0 0.00 0.00 0.00 61 1015.6
20191112065504 67 111 0.0 2.0 0.00 0.00 0.00 61 1015.5
20191112065004 67 0 0.0 1.0 0.00 0.00 0.00 61 1015.6
20191112064505 67 0 0.0 2.0 0.00 0.00 0.00 61 1015.4
20191112064004 66 124 0.0 2.0 0.00 0.00 0.00 61 1015.4
20191112063509 66 108 0.0 2.0 0.00 0.00 0.00 61 1015.4
20191112063008 66 91 0.0 2.0 0.00 0.00 0.00 61 1015.5
20191112062513 66 0 0.0 2.0 0.00 0.00 0.00 61 1015.3
20191112062015 66 0 0.0 2.0 0.00 0.00 0.00 61 1015.5
20191112061504 67 116 0.0 2.0 0.00 0.00 0.00 60 1015.5
20191112061007 67 113 0.0 2.0 0.00 0.00 0.00 59 1015.4
20191112060504 67 88 0.0 2.0 0.00 0.00 0.00 59 1015.5
20191112060004 67 84 0.0 2.0 0.00 0.00 0.00 58 1015.4
20191112055504 67 87 0.0 2.0 0.00 0.00 0.00 58 1015.2
20191112055003 67 90 0.0 2.0 0.00 0.00 0.00 57 1015.1
20191112054504 67 95 0.0 2.0 0.00 0.00 0.00 57 1015.2
20191112054007 67 90 0.0 2.0 0.00 0.00 0.00 57 1015.4
20191112053507 66 104 0.0 3.0 0.00 0.00 0.00 57 1015.4
20191112053004 66 111 0.0 3.0 0.00 0.00 0.00 56 1015.5
20191112052504 66 103 0.0 2.0 0.00 0.00 0.00 57 1015.6
20191112052003 66 98 0.0 2.0 0.00 0.00 0.00 57 1015.6
20191112051504 66 105 0.0 2.0 0.00 0.00 0.00 57 1015.4
20191112051004 66 114 0.0 2.0 0.00 0.00 0.00 57 1015.6
20191112050503 66 133 0.0 2.0 0.00 0.00 0.00 57 1015.6
20191112050004 67 97 0.0 3.0 0.00 0.00 0.00 58 1015.7
20191112045504 67 69 0.0 3.0 0.00 0.00 0.00 58 1015.7
20191112045019 67 78 0.0 3.0 0.00 0.00 0.00 58 1015.9
20191112044505 67 49 0.0 3.0 0.00 0.00 0.00 58 1016.2
20191112044004 67 77 0.0 2.0 0.00 0.00 0.00 59 1016.4
20191112043503 67 108 0.0 4.0 0.00 0.00 0.00 59 1016.6
20191112043005 67 106 0.0 4.0 0.00 0.00 0.00 59 1016.1
20191112042504 67 111 0.0 4.0 0.00 0.00 0.00 59 1016.3
20191112042003 67 109 0.0 4.0 0.00 0.00 0.00 59 1016.4
20191112041505 67 98 0.0 2.0 0.00 0.00 0.00 59 1016.6
20191112041007 67 112 0.0 3.0 0.00 0.00 0.00 60 1016.5
20191112040503 67 122 0.0 3.0 0.00 0.00 0.00 59 1016.3
20191112040005 67 103 0.0 2.0 0.00 0.00 0.00 60 1016.6
20191112035504 68 105 0.0 2.0 0.00 0.00 0.00 60 1016.4
20191112035003 67 111 0.0 3.0 0.00 0.00 0.00 61 1016.7
20191112034518 67 127 0.0 3.0 0.00 0.00 0.00 61 1016.8
20191112034005 67 129 0.0 3.0 0.00 0.00 0.00 61 1016.9
20191112033503 67 0 0.0 2.0 0.00 0.00 0.00 61 1016.7
20191112033008 67 0 0.0 2.0 0.00 0.00 0.00 61 1016.7
20191112032504 67 0 0.0 2.0 0.00 0.00 0.00 60 1017.0
20191112032003 67 0 0.0 2.0 0.00 0.00 0.00 60 1017.2
20191112031505 67 95 0.0 2.0 0.00 0.00 0.00 60 1017.1
20191112031004 67 94 0.0 4.0 0.00 0.00 0.00 60 1017.4
20191112030503 67 93 0.0 4.0 0.00 0.00 0.00 59 1017.4
20191112030004 67 98 0.0 3.0 0.00 0.00 0.00 60 1017.5
20191112025504 67 91 0.0 4.0 0.00 0.00 0.00 60 1017.1
20191112025004 67 95 0.0 4.0 0.00 0.00 0.00 59 1017.4
20191112024504 67 114 0.0 2.0 0.00 0.00 0.00 59 1017.3
20191112024004 67 114 0.0 2.0 0.00 0.00 0.00 59 1017.5
20191112023503 67 130 0.0 2.0 0.00 0.00 0.00 59 1017.5
20191112023004 67 100 0.0 2.0 0.00 0.00 0.00 58 1017.3
20191112022504 67 104 0.0 2.0 0.00 0.00 0.00 58 1017.3
20191112022004 67 107 0.0 2.0 0.00 0.00 0.00 57 1017.3
20191112021504 67 0 0.0 2.0 0.00 0.00 0.00 56 1017.5
20191112021004 68 0 0.0 2.0 0.00 0.00 0.00 56 1017.6
20191112020506 67 0 0.0 2.0 0.00 0.00 0.00 57 1017.7
20191112020004 67 105 0.0 2.0 0.00 0.00 0.00 57 1017.6
20191112015504 67 101 0.0 2.0 0.00 0.00 0.00 58 1017.7
20191112015004 66 0 0.0 2.0 0.00 0.00 0.00 58 1017.7
20191112014504 66 132 0.0 2.0 0.00 0.00 0.00 58 1017.5
20191112014004 66 123 0.0 2.0 0.00 0.00 0.00 58 1017.4
20191112013504 66 0 0.0 2.0 0.00 0.00 0.00 58 1017.2
20191112013004 66 0 0.0 2.0 0.00 0.00 0.00 58 1017.4
20191112012504 66 131 0.0 2.0 0.00 0.00 0.00 58 1017.2
20191112012004 66 125 0.0 2.0 0.00 0.00 0.00 60 1017.3
20191112011504 65 0 0.0 2.0 0.00 0.00 0.00 61 1017.4
20191112011003 65 0 0.0 2.0 0.00 0.00 0.00 61 1017.2
20191112010504 65 103 0.0 3.0 0.00 0.00 0.00 61 1017.1
20191112010005 65 130 0.0 3.0 0.00 0.00 0.00 60 1017.1
20191112005504 65 0 0.0 2.0 0.00 0.00 0.00 61 1017.1
20191112005004 65 94 0.0 2.0 0.00 0.00 0.00 61 1017.4
20191112004504 65 114 0.0 2.0 0.00 0.00 0.00 61 1017.2
20191112004004 65 91 0.0 2.0 0.00 0.00 0.00 60 1017.4
20191112003504 66 110 0.0 3.0 0.00 0.00 0.00 60 1017.2
20191112003004 66 106 0.0 3.0 0.00 0.00 0.00 59 1017.2
20191112002504 66 88 0.0 2.0 0.00 0.00 0.00 58 1017.3
20191112002004 66 0 0.0 2.0 0.00 0.00 0.00 59 1017.1
20191112001504 66 0 0.0 1.0 0.00 0.00 0.00 62 1017.0
20191112001004 64 0 0.0 2.0 0.00 0.00 0.00 63 1017.2
20191112000504 64 0 0.0 2.0 0.00 0.00 0.00 63 1017.1
20191112000004 64 0 0.0 2.0 0.00 0.00 0.00 63 1017.3
20191111235504 64 0 0.0 2.0 0.00 0.00 0.00 63 1017.3
20191111235004 64 0 0.0 1.0 0.00 0.00 0.00 63 1017.3
20191111234504 64 0 0.0 1.0 0.00 0.00 0.00 63 1017.4
20191111234004 64 0 0.0 1.0 0.00 0.00 0.00 64 1017.3
20191111233504 64 0 0.0 1.0 0.00 0.00 0.00 64 1017.1
20191111233004 64 0 0.0 2.0 0.00 0.00 0.00 65 1017.2
20191111232503 64 0 0.0 2.0 0.00 0.00 0.00 65 1016.9
20191111232004 63 0 0.0 1.0 0.00 0.00 0.00 65 1016.6
20191111231505 63 0 0.0 1.0 0.00 0.00 0.00 66 1016.9
20191111231003 63 0 0.0 1.0 0.00 0.00 0.00 67 1016.5
20191111230504 63 0 0.0 1.0 0.00 0.00 0.00 67 1016.4
20191111230005 63 0 0.0 1.0 0.00 0.00 0.00 68 1016.6
20191111225503 63 0 0.0 1.0 0.00 0.00 0.00 68 1016.5
20191111225004 63 0 0.0 1.0 0.00 0.00 0.00 68 1016.7
20191111224505 62 0 0.0 1.0 0.00 0.00 0.00 69 1016.7
20191111224004 62 0 0.0 1.0 0.00 0.00 0.00 69 1016.6
20191111223504 62 0 0.0 1.0 0.00 0.00 0.00 70 1016.6
20191111223005 62 0 0.0 1.0 0.00 0.00 0.00 70 1016.4
20191111222503 62 0 0.0 1.0 0.00 0.00 0.00 70 1016.5
20191111222004 62 0 0.0 1.0 0.00 0.00 0.00 70 1016.6
20191111221505 62 0 0.0 1.0 0.00 0.00 0.00 70 1016.4
20191111221003 62 0 0.0 1.0 0.00 0.00 0.00 70 1016.4
20191111220504 62 0 0.0 1.0 0.00 0.00 0.00 70 1016.3
20191111220005 62 0 0.0 1.0 0.00 0.00 0.00 70 1016.5
20191111215503 62 0 0.0 1.0 0.00 0.00 0.00 70 1016.5
20191111215004 62 0 0.0 1.0 0.00 0.00 0.00 70 1016.5
20191111214505 62 0 0.0 1.0 0.00 0.00 0.00 70 1016.4
20191111214004 62 0 0.0 2.0 0.00 0.00 0.00 70 1016.4
20191111213504 62 0 0.0 2.0 0.00 0.00 0.00 71 1016.5
20191111213005 62 0 0.0 1.0 0.00 0.00 0.00 71 1016.5
20191111212504 61 0 0.0 1.0 0.00 0.00 0.00 71 1016.7
20191111212003 61 0 0.0 1.0 0.00 0.00 0.00 71 1016.4
20191111211505 62 0 0.0 1.0 0.00 0.00 0.00 71 1016.5
20191111211004 61 0 0.0 1.0 0.00 0.00 0.00 71 1016.3
20191111210503 61 0 0.0 1.0 0.00 0.00 0.00 71 1016.3
20191111210005 61 0 0.0 2.0 0.00 0.00 0.00 71 1016.1
20191111205504 61 0 0.0 2.0 0.00 0.00 0.00 71 1015.9
20191111205003 61 0 0.0 1.0 0.00 0.00 0.00 71 1016.1
20191111204506 61 0 0.0 2.0 0.00 0.00 0.00 71 1016.1
20191111204004 61 0 0.0 2.0 0.00 0.00 0.00 71 1016.2
20191111203503 61 0 0.0 1.0 0.00 0.00 0.00 71 1015.9
20191111203005 61 0 0.0 1.0 0.00 0.00 0.00 71 1016.2
20191111202504 61 0 0.0 1.0 0.00 0.00 0.00 71 1016.0
20191111202003 61 0 0.0 1.0 0.00 0.00 0.00 71 1016.0
20191111201505 61 0 0.0 1.0 0.00 0.00 0.00 70 1016.0
20191111201004 61 0 0.0 1.0 0.00 0.00 0.00 70 1015.9
20191111200503 61 0 0.0 1.0 0.00 0.00 0.00 70 1015.8
20191111200005 61 0 0.0 2.0 0.00 0.00 0.00 70 1015.9
20191111195503 61 0 0.0 2.0 0.00 0.00 0.00 70 1015.7
20191111195003 61 0 0.0 1.0 0.00 0.00 0.00 70 1015.6
20191111194505 61 0 0.0 1.0 0.00 0.00 0.00 70 1015.6
20191111194004 61 0 0.0 1.0 0.00 0.00 0.00 70 1015.6
20191111193503 61 0 0.0 1.0 0.00 0.00 0.00 69 1015.8
20191111193005 61 0 0.0 1.0 0.00 0.00 0.00 69 1015.8
20191111192504 61 0 0.0 1.0 0.00 0.00 0.00 69 1015.7
20191111192003 61 0 0.0 1.0 0.00 0.00 0.00 69 1015.8
20191111191505 61 0 0.0 1.0 0.00 0.00 0.00 69 1015.7
20191111191004 61 0 0.0 1.0 0.00 0.00 0.00 69 1015.7
20191111190503 61 0 0.0 1.0 0.00 0.00 0.00 69 1015.7
20191111190005 61 0 0.0 2.0 0.00 0.00 0.00 69 1015.7
20191111185504 61 0 0.0 2.0 0.00 0.00 0.00 69 1015.7
20191111185003 61 0 0.0 1.0 0.00 0.00 0.00 69 1015.7
20191111184505 61 0 0.0 1.0 0.00 0.00 0.00 70 1015.6
20191111184004 61 0 0.0 1.0 0.00 0.00 0.00 69 1015.8
20191111183503 61 0 0.0 1.0 0.00 0.00 0.00 69 1015.8
20191111183005 61 0 0.0 1.0 0.00 0.00 0.00 69 1015.5
20191111182504 61 0 0.0 1.0 0.00 0.00 0.00 69 1015.6
20191111182003 61 0 0.0 2.0 0.00 0.00 0.00 69 1015.5
20191111181504 61 0 0.0 2.0 0.00 0.00 0.00 69 1015.7
20191111181004 61 0 0.0 2.0 0.00 0.00 0.00 68 1015.8
20191111180504 61 0 0.0 2.0 0.00 0.00 0.00 67 1015.7
20191111180004 61 0 0.0 1.0 0.00 0.00 0.00 67 1015.5
20191111175505 61 0 0.0 1.0 0.00 0.00 0.00 66 1015.6
20191111175004 61 0 0.0 1.0 0.00 0.00 0.00 66 1015.5
20191111174504 61 0 0.0 1.0 0.00 0.00 0.00 66 1015.7
20191111174004 61 0 0.0 1.0 0.00 0.00 0.00 65 1015.6
20191111173504 61 0 0.0 1.0 0.00 0.00 0.00 64 1015.6
20191111173004 61 0 0.0 1.0 0.00 0.00 0.00 63 1015.5
20191111172504 61 0 0.0 1.0 0.00 0.00 0.00 64 1015.5
20191111172004 61 0 0.0 1.0 0.00 0.00 0.00 64 1015.5
20191111171504 61 0 0.0 1.0 0.00 0.00 0.00 62 1015.6
20191111171004 61 0 0.0 1.0 0.00 0.00 0.00 62 1015.7
20191111170504 61 0 0.0 1.0 0.00 0.00 0.00 61 1015.8
20191111170004 61 0 0.0 1.0 0.00 0.00 0.00 61 1015.8
20191111165504 61 0 0.0 1.0 0.00 0.00 0.00 61 1016.0
20191111165004 61 0 0.0 1.0 0.00 0.00 0.00 60 1016.0
20191111164505 61 0 0.0 1.0 0.00 0.00 0.00 60 1016.1
20191111164004 61 0 0.0 2.0 0.00 0.00 0.00 60 1016.0
20191111163504 61 0 0.0 2.0 0.00 0.00 0.00 60 1015.9
20191111163004 61 0 0.0 2.0 0.00 0.00 0.00 60 1015.8
20191111162503 61 0 0.0 2.0 0.00 0.00 0.00 60 1016.1
20191111162004 61 0 0.0 2.0 0.00 0.00 0.00 59 1015.8
20191111161504 61 0 0.0 1.0 0.00 0.00 0.00 58 1016.0
20191111161003 61 0 0.0 1.0 0.00 0.00 0.00 58 1016.0
20191111160504 61 0 0.0 1.0 0.00 0.00 0.00 57 1015.8
20191111160005 61 0 0.0 1.0 0.00 0.00 0.00 57 1016.0
20191111155503 62 0 0.0 1.0 0.00 0.00 0.00 56 1015.8
20191111155004 62 0 0.0 1.0 0.00 0.00 0.00 54 1015.9
20191111154505 62 0 0.0 1.0 0.00 0.00 0.00 53 1015.8
20191111154003 62 0 0.0 1.0 0.00 0.00 0.00 52 1015.9
20191111153504 62 0 0.0 2.0 0.00 0.00 0.00 51 1016.1
20191111153005 62 0 0.0 2.0 0.00 0.00 0.00 50 1016.1
20191111152503 62 0 0.0 2.0 0.00 0.00 0.00 47 1015.8
20191111152004 62 0 0.0 2.0 0.00 0.00 0.00 42 1015.8
20191111151508 62 0 0.0 1.0 0.00 0.00 0.00 40 1015.9
20191111151006 62 0 0.0 1.0 0.00 0.00 0.00 40 1015.8
20191111150505 62 0 0.0 1.0 0.00 0.00 0.00 40 1015.9
20191111150005 62 0 0.0 0.0 0.00 0.00 0.00 41 1015.9
20191111145503 62 0 0.0 1.0 0.00 0.00 0.00 43 1016.1
20191111145004 62 0 0.0 1.0 0.00 0.00 0.00 44 1016.0
20191111144505 62 0 0.0 0.0 0.00 0.00 0.00 47 1015.9
20191111144004 62 0 0.0 1.0 0.00 0.00 0.00 48 1015.9
20191111143504 62 0 0.0 1.0 0.00 0.00 0.00 49 1015.9
20191111142504 62 0 0.0 1.0 0.00 0.00 0.00 50 1015.8
20191111142003 62 0 0.0 1.0 0.00 0.00 0.00 50 1015.6
20191111141505 63 0 0.0 1.0 0.00 0.00 0.00 49 1015.8
20191111141004 63 0 0.0 1.0 0.00 0.00 0.00 49 1015.6
20191111140504 63 0 0.0 1.0 0.00 0.00 0.00 49 1015.8
20191111140006 63 0 0.0 1.0 0.00 0.00 0.00 49 1015.5
20191111135503 63 0 0.0 1.0 0.00 0.00 0.00 49 1015.8
20191111135006 63 0 0.0 1.0 0.00 0.00 0.00 49 1015.5
20191111134505 63 0 0.0 2.0 0.00 0.00 0.00 49 1015.7
20191111134004 63 0 0.0 2.0 0.00 0.00 0.00 49 1016.0
20191111133504 63 0 0.0 1.0 0.00 0.00 0.00 49 1016.0
20191111133005 63 0 0.0 1.0 0.00 0.00 0.00 50 1016.0
20191111132504 63 0 0.0 1.0 0.00 0.00 0.00 49 1016.0
20191111132003 63 0 0.0 1.0 0.00 0.00 0.00 49 1016.0
20191111131506 64 0 0.0 2.0 0.00 0.00 0.00 48 1015.8
20191111131003 64 0 0.0 2.0 0.00 0.00 0.00 48 1016.1
20191111130504 64 0 0.0 1.0 0.00 0.00 0.00 46 1015.9
20191111130005 64 0 0.0 1.0 0.00 0.00 0.00 44 1016.0
20191111125503 64 0 0.0 1.0 0.00 0.00 0.00 43 1015.8
20191111125005 64 0 0.0 1.0 0.00 0.00 0.00 42 1015.8